Oshkosh, WI

9:15 PM CST on December 03, 2016 (GMT -0600)
Wittman Regional

Weather History for KOSH - August, 2013

Change the Weather History Date:

Wednesday, August 14, 2013

  Actual Average Record
Temperature  
Mean Temperature 58 °F -  
Max Temperature 71 °F 79 °F 94 °F (1965)
Min Temperature 46 °F 59 °F 42 °F (1964)
Degree Days  
Heating Degree Days 6    
Growing Degree Days 8 (Base 50)    
Moisture  
Dew Point 47 °F    
Average Humidity 65    
Maximum Humidity 86    
Minimum Humidity 42    
Precipitation  
Precipitation 0.00 in - - ()
Sea Level Pressure  
Sea Level Pressure 30.17 in    
Wind  
Wind Speed 2 mph (WSW)    
Max Wind Speed 12 mph    
Max Gust Speed 16 mph    
Visibility 10 miles    
Events      
Averages and records for this station are not official NWS values.
T = Trace of Precipitation, MM = Missing Value Source: NWS Daily Summary

Daily Weather History Graph

Daily Weather History Graph

Search for Another Location

Airport or City:

Trip Planner

Search our weather history database for the weather conditions in past years. The results will help you decide how hot, cold, wet, or windy it might be!

Date:

Astronomy

Aug. 14, 2013 Rise Set
Actual Time 5:57 AM CDT 7:59 PM CDT
Civil Twilight 5:25 AM CDT 8:30 PM CDT
Nautical Twilight 4:47 AM CDT 9:09 PM CDT
Astronomical Twilight 4:04 AM CDT 9:51 PM CDT
Moon 2:14 PM CDT (8/14) No Moon Set
Length of Visible Light 15h 04m
Length of Day
14h 02m
First Quarter, 53% of the Moon is Illuminated
Aug 14
First Quarter
Aug 20
Full
Aug 28
Last Quarter
Sep 5
New
Sep 12
First Quarter

Hourly Weather History & Observations

Time (CDT) Temp. Dew Point Humidity Pressure Visibility Wind Dir Wind Speed Gust Speed Precip Events Conditions
12:53 AM 51.1 °F 46.9 °F 86% 30.18 in 10.0 mi Calm Calm - N/A   Clear
1:53 AM 51.1 °F 46.0 °F 83% 30.18 in 10.0 mi Calm Calm - N/A   Clear
2:53 AM 48.0 °F 44.1 °F 86% 30.19 in 10.0 mi Calm Calm - N/A   Clear
3:53 AM 48.9 °F 45.0 °F 86% 30.19 in 10.0 mi West 4.6 mph - N/A   Clear
4:53 AM 48.0 °F 44.1 °F 86% 30.19 in 10.0 mi Calm Calm - N/A   Clear
5:53 AM 46.9 °F 43.0 °F 86% 30.20 in 10.0 mi West 3.5 mph - N/A   Clear
6:53 AM 51.1 °F 46.9 °F 86% 30.22 in 10.0 mi West 3.5 mph - N/A   Clear
7:53 AM 57.0 °F 48.9 °F 74% 30.22 in 10.0 mi Variable 3.5 mph - N/A   Clear
8:53 AM 61.0 °F 46.9 °F 60% 30.21 in 10.0 mi Calm Calm - N/A   Clear
9:53 AM 64.0 °F 46.0 °F 52% 30.21 in 10.0 mi Variable 3.5 mph - N/A   Clear
10:53 AM 64.9 °F 46.0 °F 50% 30.22 in 10.0 mi Calm Calm - N/A   Clear
11:53 AM 66.9 °F 46.0 °F 47% 30.20 in 10.0 mi NW 5.8 mph - N/A   Clear
12:53 PM 68.0 °F 44.1 °F 42% 30.19 in 10.0 mi WNW 11.5 mph 16.1 mph N/A   Clear
1:53 PM 68.0 °F 45.0 °F 43% 30.18 in 10.0 mi Calm Calm - N/A   Mostly Cloudy
2:53 PM 69.1 °F 46.9 °F 45% 30.17 in 10.0 mi NW 6.9 mph - N/A   Mostly Cloudy
3:53 PM 71.1 °F 48.0 °F 44% 30.15 in 10.0 mi Calm Calm - N/A   Partly Cloudy
4:53 PM 70.0 °F 48.0 °F 46% 30.13 in 10.0 mi East 10.4 mph 16.1 mph N/A   Mostly Cloudy
5:53 PM 70.0 °F 48.0 °F 46% 30.12 in 10.0 mi East 5.8 mph - N/A   Partly Cloudy
6:53 PM 69.1 °F 46.9 °F 45% 30.12 in 10.0 mi Calm Calm - N/A   Clear
7:53 PM 64.0 °F 50.0 °F 60% 30.11 in 10.0 mi Calm Calm - N/A   Scattered Clouds
8:53 PM 60.1 °F 50.0 °F 69% 30.12 in 10.0 mi Calm Calm - N/A   Scattered Clouds
9:53 PM 57.0 °F 48.9 °F 74% 30.12 in 10.0 mi South 3.5 mph - N/A   Partly Cloudy
10:53 PM 57.9 °F 51.1 °F 78% 30.11 in 10.0 mi South 8.1 mph - N/A   Overcast
11:53 PM 59.0 °F 51.1 °F 75% 30.12 in 10.0 mi SSW 8.1 mph - N/A   Mostly Cloudy